SCP
-0 -0 -0 -0 -0 -0 0 -0 0 0 0 0 0 0 0 0 1 1 0 0 1 1 1 2 2 2 2 2 2 2 1 0 0 0 0 0 0 0 0 0 0 0 0 0
-0 -0 -0 -0 -0 -0 -0 -0 0 0 0 0 0 0 0 0 0 0 0 1 1 1 1 1 1 1 1 1 2 1 1 0 -0 -0 0 0 -0 -0 -0 0 0 0 0 0
-0 -0 -0 -0 -0 -0 -0 -0 0 0 0 0 0 0 0 0 0 0 0 1 1 1 1 1 1 1 1 1 1 1 0 0 -0 -0 -0 -0 -0 -0 -0 -0 0 0 0 0
-0 -0 -0 -0 -0 -0 -0 0 0 -0 -0 -0 -0 0 0 0 0 0 0 1 1 1 1 0 0 0 0 0 0 0 0 0 0 0 0 -0 -0 -0 -0 -0 -0 0 0 0
-0 -0 -0 -0 -0 -0 -0 0 -0 -0 -0 -0 -0 -0 0 0 0 0 0 1 1 1 1 0 0 0 0 0 0 0 0 0 0 0 0 0 0 -0 -0 -0 -0 0 0 0
-0 -0 -0 -0 -0 -0 -0 -0 -0 -0 -0 -0 -0 0 0 0 0 0 0 1 1 1 1 0 0 0 0 0 0 0 0 0 1 1 1 1 0 0 0 -0 -0 0 0 0
-0 -0 -0 -0 -0 -0 -0 -0 -0 -0 -0 -0 -0 0 0 0 0 0 0 1 1 1 0 0 0 0 0 0 0 0 0 1 1 1 1 1 1 1 0 0 0 0 -0 -0
-0 -0 -0 -0 -0 -0 -0 -0 -0 -0 -0 -0 -0 0 0 0 0 0 0 0 0 0 0 0 0 0 0 0 0 1 1 1 1 1 1 2 2 1 1 0 0 0 -0 -0
-0 -0 -0 -0 -0 -0 -0 -0 -0 -0 -0 -0 -0 0 0 0 0 0 0 0 0 0 0 0 0 0 0 0 0 1 1 1 2 2 2 3 2 2 1 1 0 0 0 0
-0 -0 -0 -0 -0 -0 -0 -0 -0 -0 -0 -0 0 0 0 0 0 0 0 0 0 0 0 0 0 0 0 0 0 0 1 1 1 2 2 3 3 2 2 1 1 0 0 0
-0 -0 -0 -0 -0 -0 -0 -0 -0 -0 0 -0 0 0 0 0 0 0 0 0 0 0 0 0 0 0 0 0 0 0 0 0 1 1 1 2 2 2 2 1 1 1 0 0
0 -0 -0 -0 0 -0 -0 -0 -0 0 0 0 0 0 0 0 0 0 0 0 0 0 0 0 0 0 0 0 0 0 0 0 0 0 0 0 1 1 1 1 1 1 1 1
0 0 0 -0 0 0 -0 -0 -0 0 0 0 0 0 0 0 0 0 0 0 0 0 0 0 0 -0 -0 -0 -0 0 0 0 0 0 -0 -0 0 0 0 0 1 1 1 1
0 0 0 -0 -0 0 0 0 0 0 0 0 0 0 0 0 0 0 0 0 0 0 0 0 -0 -0 -0 -0 -0 -0 -0 -0 -0 -0 -0 -0 -0 -0 0 0 0 0 1 1
0 0 0 -0 -0 0 0 0 0 0 0 0 0 0 0 0 0 0 -0 -0 -0 -0 -0 -0 -0 -0 -0 -0 -0 -0 -0 -0 -0 0 -0 -0 -0 -0 -0 0 0 0 1 1
0 0 0 0 0 0 0 0 0 0 0 0 0 0 0 0 0 0 -0 0 0 0 0 0 0 0 0 -0 -0 -0 -0 -0 -0 0 -0 -0 -0 -0 -0 0 0 0 0 1
0 0 0 0 0 0 0 0 0 0 0 0 0 0 0 0 0 0 0 0 0 0 0 0 0 0 0 0 -0 -0 -0 -0 0 0 -0 -0 -0 -0 0 0 0 0 0 0
0 0 0 0 0 0 0 0 0 0 0 0 0 0 0 0 0 0 0 0 0 0 0 0 0 0 0 0 -0 -0 -0 0 0 0 0 -0 -0 -0 0 0 0 0 0 0
0 0 0 0 0 0 0 0 0 0 0 0 0 0 0 0 0 0 0 0 0 0 0 0 0 0 0 0 0 0 0 0 0 0 0 0 0 -0 0 0 0 0 0 0
0 0 0 0 0 0 0 0 0 0 0 0 0 0 0 0 0 0 0 0 0 0 0 0 0 0 0 0 0 0 0 0 0 0 0 0 0 -0 -0 0 0 0 0 0
0 0 0 0 0 0 0 0 0 0 0 0 0 0 0 0 0 0 0 0 0 0 -0 -0 -0 0 0 0 0 0 0 0 0 0 0 0 0 0 -0 -0 0 0 0 0
0 0 0 0 0 0 0 0 0 0 0 0 0 0 0 0 0 0 0 0 0 0 0 0 0 0 0 0 0 0 0 0 0 0 0 0 0 0 0 -0 -0 -0 -0 0
0 0 0 0 0 0 0 -0 -0 -0 -0 0 0 0 0 0 0 0 0 0 0 0 0 0 0 0 0 0 0 0 0 0 0 0 0 0 0 0 0 0 -0 -0 -0 -0
0 0 0 0 0 0 0 -0 -0 -0 -0 0 0 0 0 0 0 0 0 0 0 0 0 0 0 0 0 0 0 0 0 0 0 0 0 0 0 0 0 0 0 -0 -0 -0
0 0 0 0 0 0 0 0 -0 -0 0 0 0 0 0 0 0 0 0 0 0 0 0 0 0 0 0 0 0 0 0 0 0 0 0 0 0 0 0 0 0 0 0 0
0 0 0 0 0 0 0 0 0 0 0 0 0 0 0 0 0 0 0 0 0 0 0 0 0 0 0 0 0 0 0 0 0 0 0 0 0 0 0 0 0 0 0 0
Wind_Speed
4 6 2 5 2 4 3 5 4 1 5 6 4 1 4 4 7 9 10 10 10 9 9 8 8 8 8 8 7 5 4 4 3 2 2 2 2 2 2 1 1 1 2 3
7 4 7 3 1 2 2 4 4 2 2 7 6 3 4 6 7 8 10 10 10 10 9 8 7 8 8 7 7 6 6 5 5 3 2 2 3 3 3 2 1 2 4 5
4 8 5 1 2 5 5 7 7 9 8 10 9 11 9 8 8 8 9 9 9 9 9 9 8 8 7 7 6 5 5 6 6 4 4 3 3 4 4 3 3 3 5 5
4 4 6 7 6 9 8 6 7 8 11 12 8 12 11 7 10 12 11 10 9 8 7 7 8 8 7 7 6 7 7 7 6 6 5 5 4 5 5 4 4 4 4 6
4 5 8 8 7 8 7 5 6 9 11 11 7 9 7 2 8 10 12 10 9 7 6 6 7 5 4 4 5 7 7 8 7 7 6 6 6 5 4 3 3 5 5 5
3 3 5 7 5 3 4 7 8 9 9 5 2 8 4 8 11 12 7 2 3 1 0 3 6 6 6 6 6 7 7 8 8 8 7 7 7 6 6 5 4 5 4 4
1 2 2 4 9 4 7 10 8 6 5 1 2 6 7 15 15 15 16 16 14 15 14 15 14 13 12 11 10 9 8 8 8 8 8 8 8 8 8 7 4 5 5 5
3 3 5 6 8 10 9 9 8 8 7 7 2 2 12 15 15 16 17 17 17 17 16 16 16 16 15 16 15 13 10 9 7 7 7 7 7 7 6 6 5 5 5 5
6 6 4 3 6 8 7 6 7 9 9 9 4 3 14 15 15 15 16 17 17 17 16 16 16 16 16 16 17 17 15 12 9 6 5 6 7 8 8 7 7 6 5 5
7 10 7 3 4 2 4 6 5 7 8 9 6 7 2 11 11 12 14 15 15 15 15 15 15 15 15 15 15 16 16 16 15 12 9 5 6 9 10 9 9 7 7 7
7 9 10 6 6 8 4 4 5 7 7 10 13 4 7 7 8 9 11 12 13 14 14 14 14 15 15 16 16 15 15 15 15 15 13 12 10 9 9 9 10 9 9 9
4 8 10 9 2 1 4 4 5 7 8 9 13 1 8 8 7 7 9 11 13 14 14 14 14 14 14 14 14 14 14 14 14 14 14 13 12 11 10 10 11 11 11 11
4 7 10 7 6 5 6 5 6 8 9 11 13 1 7 7 7 8 10 13 14 15 15 15 15 14 14 13 13 13 13 14 15 15 15 15 14 13 12 12 12 13 13 13
6 10 12 13 10 9 9 8 7 10 12 13 14 1 6 6 8 10 11 12 13 13 13 13 13 11 10 10 11 11 12 12 13 14 15 14 15 15 14 14 13 13 14 15
5 9 10 11 11 9 7 8 9 9 10 12 12 6 7 9 11 12 13 14 16 15 13 12 11 10 10 9 10 10 10 10 10 10 11 12 13 14 15 15 14 14 13 15
3 7 9 11 7 4 5 10 7 7 8 7 5 3 8 11 10 12 14 16 17 17 16 16 16 16 15 14 14 14 14 13 12 12 13 11 12 14 13 14 14 14 13 13
4 6 7 9 4 9 4 10 10 6 5 6 5 7 11 13 14 15 18 20 19 18 19 20 20 19 19 18 17 17 16 15 14 13 14 13 13 14 14 14 14 13 12 12
7 6 6 9 10 7 9 5 7 6 3 1 3 9 13 17 19 19 21 19 18 20 22 21 21 21 20 20 20 20 20 18 17 16 16 15 15 15 15 14 13 12 11 10
6 6 7 7 11 6 6 7 12 12 10 6 8 17 20 23 24 21 16 19 22 23 22 22 22 23 22 22 21 21 20 20 19 18 18 17 17 17 16 15 14 12 11 11
6 6 7 7 10 5 8 11 13 11 8 1 17 22 24 25 22 18 21 23 23 24 22 22 22 23 22 20 20 21 21 20 21 20 19 19 17 17 17 16 14 13 12 12
8 5 7 9 8 6 8 12 14 11 13 19 23 24 24 23 21 24 25 25 25 24 23 23 22 20 19 18 19 20 21 20 20 20 20 20 18 17 17 15 14 13 13 13
8 7 7 7 7 3 10 12 11 14 19 22 24 23 23 24 25 25 26 26 25 24 24 24 21 20 19 18 18 21 21 20 19 18 19 20 20 18 16 15 13 13 13 13
5 7 6 6 6 4 8 12 14 17 22 23 21 22 24 25 26 27 26 25 24 24 23 22 22 22 21 19 19 21 21 19 18 17 18 19 20 18 16 15 14 13 12 12
3 2 6 7 5 8 14 15 17 19 21 22 22 23 24 27 27 27 25 24 25 24 23 22 23 22 21 20 19 19 20 19 19 19 17 16 16 16 15 12 12 12 11 10
2 2 5 9 9 13 13 18 20 20 20 22 22 23 25 26 27 26 25 25 23 23 23 22 20 20 22 21 20 19 19 17 18 18 17 15 14 14 13 12 10 10 9 6
1 4 6 8 12 15 20 20 21 21 21 22 24 25 24 25 26 27 25 24 24 24 24 23 21 20 22 22 21 19 18 17 17 16 14 12 10 10 10 10 10 11 10 5
Wind_Direction
242 256 4 40 1 345 289 263 255 10 8 325 349 5 161 186 190 186 189 184 182 171 152 147 140 139 138 137 140 149 160 154 181 186 263 275 287 300 301 299 353 313 343 351
213 56 44 43 96 219 247 259 258 237 15 318 314 280 188 193 208 206 201 198 193 176 161 158 159 156 151 146 145 151 161 161 184 178 236 275 308 300 324 308 260 295 324 323
5 44 24 289 263 297 284 291 303 305 305 265 272 262 210 204 219 223 224 217 206 190 175 170 174 172 169 167 169 167 172 185 202 202 224 217 232 249 249 257 258 312 324 318
303 356 330 303 313 314 299 340 311 301 297 294 292 287 268 233 234 232 227 220 212 189 180 179 189 192 190 192 190 189 200 212 215 218 242 270 294 307 319 302 312 321 304 311
308 321 308 306 340 322 335 348 302 297 295 287 269 274 290 270 275 261 235 225 220 188 193 210 224 228 236 244 236 220 216 225 228 231 232 245 262 277 275 274 280 287 297 296
310 292 302 329 328 309 304 267 254 252 262 252 34 300 315 29 5 356 358 246 234 172 246 311 319 319 315 302 284 266 249 244 239 234 237 239 255 258 259 253 282 286 300 296
155 135 54 321 310 274 282 291 281 259 251 357 78 284 49 43 31 34 36 40 40 37 27 19 11 2 352 338 321 301 282 270 259 245 240 235 237 236 234 246 256 285 303 309
291 335 21 352 336 320 314 295 282 301 309 317 278 259 81 61 56 54 56 53 50 47 44 37 29 25 20 13 3 350 331 307 284 257 240 231 228 233 229 223 263 275 291 303
317 323 343 347 327 315 304 292 326 291 280 280 274 168 119 64 62 55 53 49 45 41 39 35 28 24 20 17 14 8 1 353 341 311 265 238 230 238 236 220 229 251 260 273
296 298 313 340 278 147 320 320 284 283 297 294 282 258 26 39 48 48 44 39 33 29 27 23 18 13 9 7 7 6 4 1 360 355 338 308 265 242 236 235 237 247 255 259
281 287 299 307 337 338 280 244 284 286 294 296 293 325 69 64 51 36 31 24 20 15 13 9 7 3 359 359 357 356 355 353 353 354 349 342 323 295 268 253 250 247 248 246
281 289 296 302 82 233 276 309 300 301 302 285 284 2 97 90 67 30 8 1 360 358 357 356 356 353 351 351 349 348 346 344 341 339 336 337 333 324 310 292 277 262 252 247
296 275 283 278 178 196 255 270 283 294 285 280 289 83 104 68 41 13 355 347 343 341 341 339 341 341 341 341 339 338 337 338 335 332 327 326 325 326 325 319 303 280 262 251
271 263 276 295 311 315 297 295 289 280 287 294 301 64 109 31 357 344 335 327 319 314 316 318 320 323 324 322 321 322 324 325 322 322 319 318 319 320 320 320 314 297 275 257
261 263 271 282 292 291 310 342 339 321 319 308 332 26 40 2 340 327 315 307 302 299 297 293 289 286 281 277 275 274 276 279 282 288 293 299 304 308 311 312 310 305 290 269
300 295 295 281 287 291 70 21 7 8 350 346 342 26 10 336 314 295 290 289 291 294 294 295 293 290 285 279 274 270 263 257 251 261 269 272 280 287 291 294 296 299 298 284
322 303 292 296 323 258 116 24 7 9 7 353 356 342 322 304 294 294 299 298 297 300 305 307 307 307 306 301 297 292 285 279 274 271 275 272 270 276 279 284 292 299 302 298
353 326 289 298 297 295 80 47 7 331 265 221 317 305 297 299 307 307 299 305 314 315 313 311 308 306 304 302 301 300 296 289 283 280 280 277 275 278 279 280 285 292 297 298
20 332 307 316 307 105 109 24 347 317 284 229 298 315 319 319 311 303 321 331 318 311 309 307 304 303 303 302 301 299 295 290 283 280 280 278 276 277 275 274 277 283 289 291
12 345 327 335 315 344 56 2 332 302 274 261 321 320 321 320 312 317 327 317 311 310 308 306 305 303 301 301 301 299 296 293 290 289 289 283 277 274 271 269 272 275 279 281
352 352 357 333 320 64 21 341 326 310 330 328 318 318 317 316 310 310 312 310 309 307 306 306 304 302 302 302 300 294 292 291 291 291 291 286 279 273 266 263 262 265 268 274
344 341 356 331 324 20 7 340 336 317 316 316 316 315 315 312 309 309 309 309 309 307 307 307 305 304 303 301 296 291 289 291 291 290 289 285 279 272 267 263 257 255 260 264
12 3 334 333 333 346 331 318 317 320 318 317 315 315 313 310 310 311 311 310 308 307 306 306 306 306 304 300 295 289 288 287 282 280 282 281 276 269 265 264 260 251 245 251
122 335 305 296 289 307 315 313 322 324 319 315 313 312 311 310 311 311 310 309 308 306 305 305 306 305 303 298 291 284 284 283 279 276 273 271 271 267 260 254 251 249 247 249
35 310 300 286 310 312 308 322 325 320 316 313 312 311 311 311 310 311 310 309 308 307 305 304 305 303 299 296 290 286 286 282 277 274 270 262 256 260 261 254 249 255 255 259
344 331 318 320 328 315 315 323 319 317 316 316 315 313 312 311 310 311 310 309 307 305 305 307 308 303 298 295 291 290 288 283 275 270 264 259 250 243 248 252 246 225 231 183